This demonstration page uses our WeatherBlox Daily Observations layout. Learn more.

Left ArrowRight Arrow

39.92423, -83.80882

Hourly Observations for November 2, 2015

Temp ( °F °C ) Dew Point ( °F °C ) Humidity (%) Winds ( mph kmh ) Pressure ( in mb ) Visibility ( mi km ) Precip ( " mm )
12:56 am 00:56 Clear 47 8.3 46 7.7 96 96 Calm 30.06 1018 10 16.0934 0 0
1:56 am 01:56 Clear 48 8.8 48 8.8 100 100 SSE 3 6 30.07 1018 7 11.26538 0 0
1:59 am 01:59 Clear with Mist and Fog 46 8 46 8 100 100 SE 3 6 30.09 1019 1.75 2.816345 0 0
2:03 am 02:03 Clear with Mist and Fog 46 8 46 8 100 100 Calm 30.09 1019 1 1.60934 0 0
2:08 am 02:08 Clear with Fog 45 7 45 7 100 100 Calm 30.09 1019 0.5 0.80467 0 0
2:38 am 02:38 Clear with Fog 45 7 45 7 100 100 Calm 30.09 1019 0.25 0.402335 0 0
2:56 am 02:56 Clear with Fog 44 6.6 44 6.6 100 100 Calm 30.07 1018 0.25 0.402335 0 0
3:18 am 03:18 Clear with Fog 43 6 43 6 100 100 Calm 30.09 1019 5 8.0467 0 0
3:31 am 03:31 Clear with Fog 43 6 43 6 100 100 Calm 30.09 1019 0.25 0.402335 0 0
3:56 am 03:56 Clear with Fog 41 5 41 5 100 100 Calm 30.07 1018 0.25 0.402335 0 0
4:22 am 04:22 Mostly Cloudy with Fog 39 4 39 4 100 100 ESE 5 7 30.09 1019 5 8.0467 0 0
4:33 am 04:33 Mostly Cloudy with Fog 39 4 39 4 100 100 ESE 3 6 30.09 1019 0.25 0.402335 0 0
4:40 am 04:40 Mostly Cloudy with Fog 39 4 39 4 100 100 E 3 6 30.09 1019 0.25 0.402335 0 0
4:56 am 04:56 Clear with Fog 39 3.8 39 3.8 100 100 E 3 6 30.07 1018 0.25 0.402335 0 0
5:48 am 05:48 Clear with Mist and Fog 41 5 41 5 100 100 NNE 3 6 30.09 1019 0.75 1.207005 0 0
5:56 am 05:56 Clear 41 5 41 5 100 100 Calm 30.08 1019 10 16.0934 0 0
6:04 am 06:04 Clear with Mist and Fog 39 4 39 4 100 100 Calm 30.12 1020 1.75 2.816345 0 0
6:07 am 06:07 Clear with Mist and Fog 39 4 39 4 100 100 Calm 30.12 1020 1 1.60934 0 0
6:17 am 06:17 Mostly Cloudy with Fog 39 4 39 4 100 100 Calm 30.12 1020 0.5 0.80467 0 0
6:24 am 06:24 Mostly Cloudy with Fog 39 4 39 4 100 100 NE 3 6 30.12 1020 5 8.0467 0 0
6:41 am 06:41 Mostly Cloudy with Fog 39 4 39 4 100 100 ENE 3 6 30.12 1020 0.25 0.402335 0 0
6:56 am 06:56 Mostly Cloudy with Fog 40 4.4 40 4.4 100 100 E 5 7 30.09 1019 0.25 0.402335 0 0
7:07 am 07:07 Mostly Cloudy with Fog 39 4 39 4 100 100 E 3 6 30.12 1020 0.25 0.402335 0 0
7:17 am 07:17 Mostly Cloudy with Fog 41 5 41 5 100 100 E 5 7 30.12 1020 5 8.0467 0 0
7:26 am 07:26 Mostly Cloudy with Fog 41 5 41 5 100 100 E 5 7 30.12 1020 0.5 0.80467 0 0
7:34 am 07:34 Sunny with Fog 39 4 39 4 100 100 E 6 9 30.12 1020 0.5 0.80467 0 0
7:49 am 07:49 Sunny with Mist and Fog 41 5 41 5 100 100 ESE 6 9 30.12 1020 1 1.60934 0 0
7:56 am 07:56 Sunny with Mist and Fog 43 6.1 43 6.1 100 100 ESE 5 7 30.11 1020 4 6.43736 0 0
8:56 am 08:56 Sunny 53 11.6 53 11.6 100 100 ENE 7 11 30.1 1019 10 16.0934 0 0
9:56 am 09:56 Sunny 59 15 53 11.6 80 80 ENE 6 9 30.09 1019 10 16.0934 0 0
10:56 am 10:56 Sunny 65 18.3 52 11.1 63 63 E 8 13 30.09 1019 10 16.0934 0 0
11:56 am 11:56 Sunny 68 20 49 9.4 51 51 ESE 8 13 30.09 1019 10 16.0934 0 0
12:56 pm 12:56 Sunny 69 20.5 47 8.3 46 46 E 5 7 30.07 1018 10 16.0934 0 0
1:56 pm 13:56 Sunny 68 20 48 8.8 49 49 SE 8 13 30.06 1018 10 16.0934 0 0
2:56 pm 14:56 Sunny 70 21.1 48 8.8 45 45 Calm 30.05 1018 10 16.0934 0 0
3:56 pm 15:56 Sunny 70 21.1 47 8.3 44 44 ESE 8 13 30.05 1018 10 16.0934 0 0
4:56 pm 16:56 Sunny 66 18.8 49 9.4 55 55 ESE 6 9 30.06 1018 10 16.0934 0 0
5:56 pm 17:56 Clear 61 16.1 47 8.3 60 60 Calm 30.09 1019 10 16.0934 0 0
6:56 pm 18:56 Clear 54 12.2 46 7.7 74 74 SE 3 6 30.1 1019 10 16.0934 0 0
7:56 pm 19:56 Clear 49 9.4 45 7.2 86 86 ESE 5 7 30.1 1019 10 16.0934 0 0
8:56 pm 20:56 Clear 47 8.3 44 6.6 89 89 ESE 6 9 30.09 1019 10 16.0934 0 0
9:56 pm 21:56 Clear 48 8.8 44 6.6 86 86 SE 5 7 30.09 1019 10 16.0934 0 0
10:56 pm 22:56 Clear 48 8.8 44 6.6 86 86 NNE 3 6 30.1 1019 10 16.0934 0 0
11:56 pm 23:56 Clear 45 7.2 43 6.1 93 93 E 3 6 30.1 1019 10 16.0934 0 0

Powered by AerisWeather